Погода в Успенке

Россия / Тюменская область     56°42′07″N   68°30′24″E
темп.,
°C
ветер,
м/с
пор.,
м/с
влажн.,
%
обл.,
%
осадки,
мм/ч
давл.,
гПа
погр.,
м
14 мая, пт
пт1423:00+14ссв35635 0.0 102466
02:00+12св33665 0.0 102530
05:00+10вюв22735 0.0 102731
08:00+16ю22547 0.0 1027319
11:00+21зюз233710 0.0 1026984
14:00+25з342837 0.0 10241520
17:00+27зюз583050 0.0 10232521
20:00+22ююз4104944 0.0 1022166
15 мая, сб
сб1523:00+19юз5135130 0.0 1021232
02:00+19зюз5145152 0.0 1020254
05:00+16зюз49595 0.0 1020144
08:00+22з46455 0.0 1020313
11:00+28з583228 0.0 10192156
14:00+29з7826100 0.0 10182603
17:00+29зсз572688 0.0 10163163
20:00+24зюз511436 0.0 1015195
16 мая, вс
вс1623:00+20зюз412495 0.0 1015189
02:00+19з410520 0.0 1015164
05:00+17зсз4966100 0.3 1016156
08:00+23зсз585291 0.0 1016415
11:00+27зсз710395 0.0 10151894
14:00+28сз7113589 0.0 10152795
17:00+28ссз611365 0.0 10162616
20:00+22всв355694 0.0 101782
17 мая, пн
пн1723:00+18ююв476525 0.0 1017124
02:00+17ю4126969 0.0 1017210
05:00+17юз35715 0.0 101786
08:00+23з5104287 0.0 1016353
11:00+29з79285 0.0 10162354
14:00+30зсз710225 0.0 10143740
17:00+30з610243 0.0 10123348
20:00+25з363596 0.0 1012101
18 мая, вт
вт1823:00+19всв5115696 0.0 1013280
02:00+17ю22655 0.0 101319
05:00+16зюз346621 0.0 101362
08:00+22зсз5849100 0.0 1012393
11:00+25сз79372 0.0 10122439
14:00+27сз7102990 0.0 10113530
17:00+24ссз69388 0.0 10111702
20:00+19с711602 0.0 1013535